Weather History for Middlesboro, KY

Change the Weather History Date:

Saturday, March 30, 2013

  Actual Average (KLOZ) Record (KLOZ)
Temperature  
Mean Temperature 46 °F 52 °F  
Max Temperature 57 °F 63 °F 83 °F (1963)
Min Temperature 36 °F 40 °F 19 °F (1964)
Degree Days  
Heating Degree Days 18 14  
Month to date heating degree days 535  
Since 1 July heating degree days 3811  
Cooling Degree Days 0 0  
Month to date cooling degree days 0  
Year to date cooling degree days 0  
Moisture  
Dew Point 40 °F    
Average Humidity 78    
Maximum Humidity 99    
Minimum Humidity 53    
Precipitation  
Precipitation 0.14 in 0.14 in 1.04 in (1962)
Month to date precipitation 3.92  
Year to date precipitation 11.17  
Sea Level Pressure  
Sea Level Pressure 30.15 in    
Wind  
Wind Speed 1 mph (South)    
Max Wind Speed 7 mph    
Max Gust Speed -    
Visibility 9 miles    
Events Rain    
T = Trace of Precipitation, MM = Missing Value Source: NWS Daily Summary

Daily Weather History Graph

Daily Weather History Graph

Search for Another Location

Airport:

Trip Planner

Search our weather history database for the weather conditions in past years. The results will help you decide how hot, cold, wet, or windy it might be!

Date:

Astronomy

Mar. 30, 2013 Rise Set
Actual Time 6:23 AM CDT 6:55 PM CDT
Civil Twilight 5:57 AM CDT 7:21 PM CDT
Nautical Twilight 5:27 AM CDT 7:52 PM CDT
Astronomical Twilight 4:55 AM CDT 8:23 PM CDT
Moon 10:54 PM CDT (3/30) 8:23 AM CDT (3/30)
Length of Visible Light 13h 24m
Length of Day
12h 32m
Waning Gibbous, 86% of the Moon is Illuminated
Mar 30
Waning Gibbous
Apr 2
Last Quarter
Apr 10
New
Apr 18
First Quarter
Apr 25
Full

Hourly Weather History & Observations

Time (CDT) Temp. Dew Point Humidity Pressure Visibility Wind Dir Wind Speed Gust Speed Precip Events Conditions
12:15 AM 38.5 °F 37.8 °F 97% 30.24 in 5.0 mi Calm Calm - N/A   Mostly Cloudy
12:35 AM 38.5 °F 37.9 °F 98% 30.24 in 7.0 mi Calm Calm - N/A   Overcast
12:55 AM 39.2 °F 37.9 °F 95% 30.24 in 10.0 mi Calm Calm - N/A   Overcast
1:15 AM 39.6 °F 37.4 °F 92% 30.24 in 10.0 mi Calm Calm - N/A   Overcast
1:35 AM 39.7 °F 37.4 °F 91% 30.24 in 10.0 mi Calm Calm - N/A   Overcast
1:55 AM 39.7 °F 37.6 °F 92% 30.23 in 10.0 mi Calm Calm - N/A   Overcast
2:15 AM 39.4 °F 38.3 °F 96% 30.23 in 10.0 mi Calm Calm - N/A   Overcast
2:35 AM 39.4 °F 37.6 °F 93% 30.22 in 10.0 mi Calm Calm - N/A   Overcast
2:55 AM 38.3 °F 37.4 °F 97% 30.22 in 7.0 mi Calm Calm - N/A   Overcast
3:15 AM 37.4 °F 36.9 °F 98% 30.22 in 7.0 mi Calm Calm - N/A   Overcast
3:35 AM 36.9 °F 36.5 °F 99% 30.22 in 4.0 mi Calm Calm - N/A   Overcast
3:55 AM 36.7 °F 36.5 °F 99% 30.22 in 3.0 mi Calm Calm - N/A   Overcast
4:15 AM 36.7 °F 36.5 °F 99% 30.21 in 4.0 mi Calm Calm - N/A   Overcast
4:35 AM 36.7 °F 36.5 °F 99% 30.21 in 5.0 mi Calm Calm - N/A   Overcast
4:55 AM 37.0 °F 36.9 °F 99% 30.21 in 5.0 mi Calm Calm - N/A   Overcast
5:15 AM 37.6 °F 37.2 °F 99% 30.21 in 7.0 mi Calm Calm - N/A   Overcast
5:35 AM 37.6 °F 37.2 °F 99% 30.22 in 7.0 mi Calm Calm - N/A   Overcast
5:55 AM 37.6 °F 37.2 °F 99% 30.22 in 7.0 mi Calm Calm - N/A   Overcast
6:15 AM 37.8 °F 37.4 °F 99% 30.22 in 7.0 mi Calm Calm - N/A   Overcast
6:35 AM 38.3 °F 37.6 °F 97% 30.23 in 5.0 mi Calm Calm - N/A   Overcast
6:55 AM 38.1 °F 37.4 °F 97% 30.24 in 5.0 mi Calm Calm - N/A   Overcast
7:15 AM 38.3 °F 37.6 °F 97% 30.24 in 5.0 mi Calm Calm - N/A   Overcast
7:35 AM 38.5 °F 37.4 °F 96% 30.24 in 7.0 mi Calm Calm - N/A   Overcast
7:55 AM 39.2 °F 37.6 °F 94% 30.24 in 7.0 mi Calm Calm - N/A   Overcast
8:15 AM 39.9 °F 37.9 °F 93% 30.24 in 10.0 mi Calm Calm - N/A   Overcast
8:35 AM 40.1 °F 37.9 °F 92% 30.24 in 10.0 mi Calm Calm - N/A   Overcast
8:55 AM 41.0 °F 38.5 °F 91% 30.23 in 10.0 mi Calm Calm - N/A   Overcast
9:15 AM 42.4 °F 39.0 °F 88% 30.23 in 10.0 mi Calm Calm - N/A   Overcast
9:35 AM 43.9 °F 38.3 °F 81% 30.22 in 10.0 mi Calm Calm - N/A   Overcast
9:55 AM 45.5 °F 38.3 °F 76% 30.23 in 10.0 mi Calm Calm - N/A   Overcast
10:15 AM 46.8 °F 38.3 °F 72% 30.22 in 10.0 mi Calm Calm - N/A   Overcast
10:35 AM 48.0 °F 38.3 °F 69% 30.22 in 10.0 mi Calm Calm - N/A   Overcast
10:55 AM 49.8 °F 39.2 °F 67% 30.21 in 10.0 mi SE 3.5 mph - N/A   Mostly Cloudy
11:15 AM 50.4 °F 39.4 °F 66% 30.20 in 10.0 mi East 4.6 mph - N/A   Scattered Clouds
11:35 AM 52.2 °F 40.3 °F 64% 30.18 in 10.0 mi Calm Calm - N/A   Clear
11:55 AM 53.2 °F 40.1 °F 61% 30.18 in 10.0 mi Calm Calm - N/A   Mostly Cloudy
12:15 PM 52.2 °F 38.5 °F 60% 30.17 in 10.0 mi Calm Calm - N/A   Overcast
12:35 PM 53.8 °F 39.4 °F 58% 30.17 in 10.0 mi ESE 4.6 mph - N/A   Overcast
12:55 PM 54.0 °F 38.7 °F 56% 30.16 in 10.0 mi South 5.8 mph - N/A   Overcast
1:15 PM 54.5 °F 39.2 °F 56% 30.15 in 10.0 mi South 5.8 mph - N/A   Overcast
1:35 PM 54.9 °F 39.0 °F 55% 30.14 in 10.0 mi Calm Calm - N/A   Overcast
1:55 PM 55.0 °F 39.4 °F 56% 30.14 in 10.0 mi South 5.8 mph - N/A   Mostly Cloudy
2:15 PM 55.8 °F 39.9 °F 55% 30.13 in 10.0 mi SSE 4.6 mph - N/A   Overcast
2:35 PM 55.8 °F 39.9 °F 55% 30.12 in 10.0 mi SSE 6.9 mph - N/A   Mostly Cloudy
2:55 PM 56.5 °F 40.1 °F 54% 30.11 in 10.0 mi SSE 6.9 mph - N/A   Mostly Cloudy
3:15 PM 56.7 °F 40.1 °F 54% 30.10 in 10.0 mi Calm Calm - N/A   Mostly Cloudy
3:35 PM 57.2 °F 40.3 °F 53% 30.09 in 10.0 mi SE 4.6 mph - N/A   Mostly Cloudy
3:55 PM 57.2 °F 40.1 °F 53% 30.09 in 10.0 mi SW 5.8 mph - N/A   Mostly Cloudy
4:15 PM 57.6 °F 40.3 °F 53% 30.08 in 10.0 mi South 5.8 mph - N/A   Scattered Clouds
4:35 PM 57.2 °F 40.1 °F 53% 30.08 in 10.0 mi South 5.8 mph - N/A   Clear
4:55 PM 56.8 °F 39.9 °F 53% 30.08 in 10.0 mi SSE 5.8 mph - N/A   Clear
5:15 PM 56.7 °F 40.1 °F 54% 30.07 in 10.0 mi South 5.8 mph - N/A   Clear
5:35 PM 56.3 °F 39.9 °F 54% 30.06 in 10.0 mi South 3.5 mph - N/A   Clear
5:55 PM 56.3 °F 40.3 °F 55% 30.06 in 10.0 mi Calm Calm - N/A   Clear
6:15 PM 55.9 °F 40.6 °F 56% 30.06 in 10.0 mi Calm Calm - N/A   Clear
6:35 PM 55.2 °F 41.0 °F 59% 30.05 in 10.0 mi Calm Calm - N/A   Clear
6:55 PM 55.0 °F 40.5 °F 58% 30.05 in 10.0 mi South 3.5 mph - N/A   Clear
7:15 PM 53.6 °F 41.2 °F 63% 30.05 in 10.0 mi Calm Calm - N/A   Clear
7:35 PM 51.4 °F 43.2 °F 73% 30.04 in 10.0 mi Calm Calm - N/A   Scattered Clouds
7:55 PM 51.1 °F 43.3 °F 75% 30.05 in 10.0 mi Calm Calm - N/A   Scattered Clouds
8:15 PM 50.5 °F 43.0 °F 75% 30.04 in 10.0 mi Calm Calm - N/A   Clear
8:35 PM 49.8 °F 42.6 °F 76% 30.03 in 10.0 mi Calm Calm - N/A   Clear
8:55 PM 47.7 °F 42.4 °F 82% 30.03 in 10.0 mi WNW 3.5 mph - N/A   Clear
9:15 PM 49.1 °F 42.4 °F 78% 30.02 in 10.0 mi Calm Calm - N/A   Clear
9:35 PM 50.0 °F 42.1 °F 74% 30.03 in 10.0 mi Calm Calm - N/A   Clear
9:55 PM 48.7 °F 42.8 °F 80% 30.02 in 10.0 mi West 3.5 mph - N/A   Mostly Cloudy
10:15 PM 49.1 °F 43.3 °F 81% 30.02 in 10.0 mi Calm Calm - N/A Rain Light Rain
10:35 PM 48.0 °F 44.8 °F 89% 30.02 in 7.0 mi Calm Calm - 0.01 in Rain Light Rain
10:55 PM 46.6 °F 45.3 °F 95% 30.02 in 4.0 mi Calm Calm - 0.04 in Rain Rain
11:15 PM 46.4 °F 45.7 °F 97% 30.01 in 4.0 mi Calm Calm - 0.04 in Rain Rain
11:35 PM 46.6 °F 46.4 °F 99% 30.00 in 5.0 mi Calm Calm - 0.08 in Rain Rain
11:55 PM 47.1 °F 46.4 °F 97% 30.00 in 5.0 mi Calm Calm - 0.10 in Rain Rain